Theta_e
299 300 300 300 301 301 300 300 299 299 298 298 297 297 298 298 298 297 298 298 299 299 299 300 300 300 299 299 300 302 302 302 302 301 301 301 300 300 299 299 299 299 299 299 299 300 299 299 300 300 301 302 302 303 303 302 300 300 300 300 300 301 300 300 300 299 298 298 299 299 301 301 300 300 299 298 298 298 299 300 301 301 300 299 299 298 299 300 299 299 300 300 300 300 301 299 298 298 298 298 297 296 295
299 300 300 300 300 299 299 299 299 299 298 298 297 297 298 298 298 298 297 297 298 298 299 299 300 299 299 299 300 302 302 301 301 301 301 300 300 299 298 298 298 298 298 298 298 298 299 299 299 299 301 301 301 303 303 301 300 300 300 300 300 300 300 300 300 300 298 298 299 299 301 301 301 301 300 299 299 300 300 301 302 301 301 300 300 299 300 300 301 302 302 302 301 301 302 301 299 297 296 296 296 296 295
299 299 299 299 299 299 299 299 299 299 299 299 298 297 297 298 299 298 297 296 296 296 298 299 299 298 298 299 300 301 302 302 301 301 300 300 300 299 299 298 298 297 298 298 298 299 300 300 299 299 300 301 301 302 301 300 300 300 300 300 300 300 300 300 299 299 298 298 299 299 297 298 299 299 300 299 298 299 299 300 301 301 301 301 301 301 302 302 303 303 302 302 301 300 299 299 299 297 295 295 295 296 296
298 299 299 299 299 299 299 299 299 300 300 299 299 298 297 298 298 298 296 296 296 296 297 299 299 298 298 299 299 300 301 302 302 301 301 300 300 301 300 300 299 299 300 300 300 301 301 301 301 301 301 301 301 301 301 300 300 300 300 300 300 300 300 299 299 299 298 298 298 298 296 296 296 296 299 298 298 298 298 299 300 300 302 302 301 302 302 303 302 302 301 300 299 298 298 298 298 298 296 295 296 297 297
297 298 298 299 299 298 299 299 298 299 299 298 298 297 297 297 297 296 296 296 296 296 297 297 298 298 298 299 299 300 300 301 302 302 302 302 302 302 301 301 301 300 301 302 302 301 302 302 302 302 302 301 301 302 301 301 301 301 300 300 300 300 299 299 299 299 298 297 297 296 295 296 296 296 298 299 298 298 298 298 300 301 301 299 299 299 298 299 300 301 301 300 300 299 298 297 297 298 297 297 297 297 298
297 296 297 298 298 298 298 298 298 298 297 296 296 297 296 296 296 296 296 296 296 296 296 296 296 297 297 298 299 300 300 302 303 302 302 302 302 303 302 302 302 301 301 302 302 301 301 301 302 302 301 300 300 300 300 300 300 300 300 300 300 299 300 300 300 299 298 298 297 295 295 295 296 297 299 299 299 300 298 298 298 300 298 297 297 298 298 298 298 300 300 300 300 299 299 298 297 296 296 297 297 298 298
296 297 297 297 297 297 298 298 298 297 296 296 297 297 296 296 296 296 296 297 297 297 297 296 296 297 297 297 298 299 299 302 304 304 303 303 303 304 303 303 303 302 302 302 302 303 302 301 300 300 299 299 299 299 300 300 300 300 299 300 301 300 300 300 300 299 299 298 297 297 296 296 296 298 299 299 299 298 297 297 297 298 298 298 297 297 297 297 297 298 298 299 299 299 299 299 297 296 295 294 295 296 298
295 295 296 297 297 297 297 297 296 295 295 296 297 297 297 297 296 296 296 297 297 298 297 297 297 297 297 297 297 298 299 301 303 303 302 302 303 303 301 301 301 300 300 300 300 299 299 299 298 299 298 298 298 298 299 300 301 300 300 300 300 300 300 300 300 299 299 299 298 297 296 296 296 296 296 296 296 295 295 296 297 297 298 298 297 297 297 296 297 297 297 298 298 298 299 298 297 296 295 294 294 294 297
295 295 296 297 296 296 295 296 296 294 295 296 296 296 297 297 297 297 297 297 298 298 298 298 297 297 297 297 297 297 298 299 300 301 301 302 302 300 300 300 300 300 299 299 299 298 298 298 298 297 297 297 297 298 300 300 301 300 301 301 300 300 300 300 300 299 300 300 298 296 296 295 295 294 293 293 294 294 295 296 296 297 298 298 298 297 297 297 296 296 297 297 298 298 298 297 297 296 295 294 293 294 295
295 295 295 295 295 294 295 296 296 295 295 295 296 296 297 297 297 298 298 298 298 298 298 297 297 297 297 297 297 297 297 297 298 299 300 301 302 301 301 300 300 300 299 299 299 299 298 298 297 297 297 297 297 298 299 300 300 301 301 301 300 300 300 300 300 299 300 300 298 296 295 294 293 292 293 293 294 295 295 295 296 297 298 298 298 298 297 297 296 296 297 297 297 298 298 297 296 295 295 295 294 293 293
294 294 294 294 294 294 294 295 295 296 295 295 296 296 296 296 296 297 297 297 297 297 297 297 297 297 297 297 297 297 297 296 296 297 299 300 300 301 300 300 300 300 300 299 299 299 298 298 298 299 299 299 299 299 299 300 301 301 301 301 301 299 300 300 299 298 299 299 298 296 295 294 293 293 294 295 295 295 296 296 296 297 298 298 298 298 297 297 297 297 296 297 297 297 297 297 296 295 295 294 294 293 293
293 295 294 294 294 294 295 295 296 296 296 296 297 296 295 295 295 295 295 296 296 296 297 297 297 297 297 297 297 297 297 296 296 296 298 298 298 299 299 299 299 301 300 300 300 300 299 299 299 299 299 299 300 300 300 301 301 301 301 301 301 299 299 299 299 299 298 297 297 295 295 294 294 295 295 295 295 295 295 295 296 297 298 298 297 297 297 297 297 297 296 296 297 296 296 295 295 296 295 294 293 293 292
294 295 294 294 294 295 295 296 296 296 296 297 297 296 295 295 295 295 295 295 296 296 296 296 296 296 298 298 298 297 297 296 296 295 296 297 298 298 298 298 298 299 299 299 299 299 300 299 298 297 297 299 300 301 301 301 300 300 301 301 301 299 298 298 299 299 297 297 296 296 295 295 295 294 294 294 295 295 295 295 296 297 298 298 297 296 296 297 297 297 295 296 296 295 294 294 294 295 294 293 293 292 292
294 294 294 294 294 295 296 296 296 295 296 296 296 295 294 294 295 294 294 295 296 296 296 296 296 295 297 298 299 297 297 297 297 296 297 297 298 298 297 297 297 297 299 300 299 299 299 299 299 298 298 299 299 300 301 301 300 299 300 300 300 299 298 297 298 298 297 296 296 296 296 295 295 295 294 295 295 295 295 295 295 297 298 298 297 297 296 296 296 295 295 294 295 294 293 293 293 294 293 293 292 293 292
294 293 294 294 294 295 295 295 295 295 296 295 295 295 295 296 296 295 295 295 295 295 296 296 295 295 296 297 298 297 297 298 298 298 297 297 298 299 297 297 298 298 298 299 299 299 300 300 300 299 299 299 299 298 299 299 299 299 299 299 299 298 298 297 296 296 297 297 296 296 296 296 296 297 295 295 294 295 295 295 295 297 299 298 297 297 296 295 295 294 294 293 293 293 292 293 293 293 293 293 293 293 292
293 293 294 294 295 295 295 295 296 296 296 296 295 295 296 296 296 295 295 295 295 295 296 296 296 296 296 297 297 297 297 298 299 298 298 298 299 300 298 298 298 298 297 298 299 299 300 299 298 298 297 297 297 296 297 297 297 297 297 297 297 298 298 298 297 296 296 296 296 296 296 296 297 297 296 295 294 294 294 295 295 297 299 298 297 297 295 295 294 293 293 292 292 292 292 292 292 291 292 293 294 293 292
292 293 294 295 295 295 295 295 296 296 296 296 296 295 296 296 295 295 295 295 296 296 296 297 297 296 297 297 297 297 297 297 298 297 298 298 299 300 298 297 297 297 296 297 297 298 298 298 297 296 296 295 295 295 296 297 297 296 296 297 297 298 298 298 297 296 296 295 295 295 296 296 296 296 296 295 294 294 295 295 296 299 299 299 297 296 295 294 294 293 292 292 291 291 291 291 291 290 291 292 292 292 292
292 293 294 295 295 296 296 296 296 297 297 296 296 295 296 296 296 295 296 296 296 296 296 296 296 296 296 296 296 296 296 297 297 297 298 299 298 298 297 297 297 296 295 295 296 296 296 296 296 296 295 295 294 295 296 297 297 296 296 297 297 298 297 297 297 296 296 295 295 295 295 295 295 295 294 294 294 295 295 295 297 300 300 298 296 295 295 294 294 293 292 291 291 291 291 290 290 290 290 291 291 291 291
293 294 294 295 296 296 297 297 297 297 297 297 297 296 296 296 296 296 295 295 295 295 295 295 295 295 295 295 296 296 296 296 297 297 298 298 297 296 296 296 296 295 295 295 295 296 295 295 295 295 295 294 294 295 296 297 297 296 296 296 297 297 297 296 296 296 296 295 295 295 295 295 295 295 294 294 294 294 294 295 296 298 298 297 296 295 294 294 293 293 292 292 291 291 291 290 290 290 290 290 290 290 289
295 295 295 296 296 297 297 297 297 297 297 297 297 297 296 296 295 295 295 295 294 294 294 294 294 294 295 295 296 296 296 297 297 297 297 296 296 295 295 295 295 295 294 294 295 295 295 295 295 295 295 294 294 294 295 296 296 296 296 296 296 296 296 296 295 295 295 295 295 295 295 295 295 295 294 294 294 294 294 295 295 297 296 296 295 294 293 293 292 292 292 292 292 292 291 291 291 290 290 290 289 289 289
295 296 296 296 296 297 297 297 297 296 296 296 296 296 296 295 295 294 294 294 294 294 293 293 294 294 295 296 296 297 296 296 297 297 296 295 295 294 295 294 294 294 295 295 295 295 295 295 295 296 295 295 294 294 294 294 294 295 296 296 296 296 295 295 295 295 295 295 295 295 294 294 294 295 294 294 294 294 295 296 296 295 295 294 293 293 292 293 293 292 293 293 293 292 292 292 291 290 290 290 289 289 289
295 295 296 296 296 296 296 296 295 295 295 295 295 295 295 295 294 294 294 293 293 293 293 293 294 294 295 296 296 296 296 296 296 296 296 295 295 295 295 295 295 294 295 294 294 294 294 295 294 294 294 293 293 293 293 293 293 294 295 295 295 295 295 295 294 294 294 294 294 294 294 294 294 294 294 295 295 295 296 296 295 295 294 293 293 293 293 293 293 293 293 293 293 292 291 291 290 289 290 290 289 289 289
295 295 295 294 294 294 294 294 294 294 294 295 295 294 294 294 294 293 293 293 293 293 293 293 294 295 295 296 296 295 295 295 296 296 296 296 295 295 295 295 295 295 295 294 293 294 293 292 292 293 293 292 292 293 293 293 294 295 295 295 295 294 294 294 294 294 294 294 294 294 294 294 294 294 294 295 295 295 295 295 295 294 294 293 294 293 294 293 293 292 292 292 292 291 290 290 289 289 289 289 289 288 287
294 294 294 294 294 294 293 293 293 294 294 294 294 294 294 294 293 293 293 293 293 293 293 293 293 294 295 295 295 293 294 294 295 296 296 296 296 295 295 295 294 294 294 294 293 293 292 292 292 293 293 293 293 293 294 294 295 295 295 295 295 295 295 294 294 294 294 294 295 294 294 294 294 294 295 294 294 295 294 294 294 294 294 294 293 293 293 292 291 291 291 291 290 290 289 288 288 288 289 288 288 287 287
294 294 294 293 294 293 293 293 293 293 294 294 294 294 294 294 294 293 293 293 293 293 293 293 293 294 294 295 294 292 293 294 295 296 296 296 295 295 294 294 293 294 294 294 294 293 293 294 294 294 294 294 294 294 294 294 295 295 295 295 295 295 295 295 295 295 295 295 295 294 295 295 295 295 295 295 295 295 295 295 295 294 294 293 293 292 292 291 291 290 289 289 289 289 288 288 288 289 288 287 287 287 287
293 293 293 293 293 293 293 293 293 293 294 294 294 294 294 294 293 293 293 292 292 293 292 293 293 294 294 294 293 291 292 294 295 295 295 295 294 294 294 293 293 294 294 294 294 293 294 295 295 295 294 294 295 295 294 294 295 295 294 294 295 295 295 295 295 295 295 295 295 295 295 296 296 296 296 295 295 295 295 295 294 294 293 293 292 292 291 291 290 289 289 289 289 289 288 288 287 288 287 287 287 287 287
293 293 293 293 293 293 293 293 294 294 294 295 295 295 294 293 293 292 292 292 293 292 292 292 293 293 294 293 292 290 292 293 294 294 294 294 294 293 293 293 294 294 294 293 293 293 294 294 295 294 294 294 295 295 295 295 295 295 295 295 295 295 295 295 295 295 295 295 295 296 296 297 297 296 296 296 295 295 295 294 293 293 292 292 292 291 291 290 290 289 289 289 289 289 288 288 288 287 287 287 286 286 286
294 294 293 293 293 293 294 294 295 295 294 294 294 294 293 293 292 292 292 292 293 292 292 292 292 293 293 292 291 290 292 293 293 293 293 293 294 293 293 293 294 294 294 293 294 294 294 294 294 294 294 293 294 294 294 295 295 295 295 295 295 295 295 295 295 295 295 296 296 297 297 296 296 296 296 295 294 294 293 293 292 292 292 291 291 290 290 290 289 289 288 289 289 289 288 288 288 288 287 287 287 286 287
294 294 294 294 294 294 295 295 296 295 294 294 293 293 293 292 292 292 292 292 293 293 292 293 293 293 292 291 291 291 292 292 292 292 293 293 293 293 293 293 293 293 293 293 293 293 293 293 293 293 293 293 293 294 294 295 295 296 296 296 295 295 295 295 295 295 295 296 296 296 296 295 294 294 293 293 292 292 292 292 292 291 291 291 291 290 290 289 289 289 289 289 289 288 287 287 287 289 288 288 287 287 288
294 294 294 294 295 295 296 296 295 295 294 294 293 292 292 292 292 292 292 292 293 293 293 293 293 292 292 292 291 290 292 292 292 292 292 292 292 293 293 293 293 293 293 293 293 293 293 292 292 293 292 293 293 294 295 295 295 295 295 295 295 294 294 294 294 294 294 294 294 294 294 293 292 292 291 291 291 291 291 291 291 291 291 291 291 291 290 290 289 289 289 289 288 288 288 288 288 288 288 288 288 289 289
293 293 294 295 295 296 296 296 295 294 293 292 292 292 292 292 293 292 292 292 292 293 293 293 293 293 293 293 292 290 292 292 292 291 292 292 292 292 292 292 292 292 292 292 292 292 292 292 292 292 292 293 293 294 294 294 294 294 294 294 293 293 293 293 293 292 291 291 292 293 292 292 292 292 292 292 292 292 292 291 291 291 291 291 291 291 290 290 289 288 289 289 289 289 288 288 288 288 288 288 288 289 289
294 294 295 296 297 297 297 296 294 292 291 290 290 291 291 292 292 292 292 292 293 294 293 293 293 293 293 293 291 290 292 292 292 292 291 291 291 291 291 291 291 291 291 291 292 292 292 292 292 292 292 292 293 293 292 293 293 293 293 293 292 293 292 292 291 291 291 291 291 292 291 291 291 292 292 292 291 291 291 291 291 291 291 290 290 289 289 289 289 288 289 289 289 289 289 289 288 288 288 288 288 289 289
295 296 297 297 298 297 296 294 293 291 291 291 291 291 291 292 292 292 293 294 294 294 294 293 292 292 293 291 289 290 291 292 291 291 291 290 290 290 290 290 290 290 291 291 291 291 292 291 291 291 291 291 292 292 291 291 291 291 292 292 292 292 292 292 291 291 292 291 291 291 291 291 291 291 291 291 291 291 291 291 290 290 289 289 288 288 288 288 288 288 289 289 289 289 289 289 289 288 288 288 288 288 289
297 297 297 297 297 296 294 293 291 291 292 292 292 292 293 293 293 294 294 295 295 295 294 294 293 293 292 290 289 290 291 292 291 291 290 290 290 290 290 290 289 289 290 290 290 290 291 291 290 290 290 290 290 290 290 290 290 290 291 291 291 291 291 291 291 291 291 291 291 291 290 291 291 290 290 290 291 290 290 290 289 289 288 288 288 288 288 288 287 288 288 288 288 289 289 289 288 288 288 287 287 288 288
296 296 296 296 295 294 293 292 291 291 291 291 292 292 293 294 294 295 295 295 295 295 295 294 294 294 293 291 289 289 291 291 291 291 290 290 290 290 289 289 289 289 289 289 289 289 289 289 289 289 289 289 289 289 289 289 288 288 289 289 290 290 290 290 290 290 290 290 291 291 290 290 290 290 290 289 289 289 288 288 288 287 287 287 287 287 287 287 287 287 287 287 287 287 287 287 287 287 286 286 286 287 287
296 295 295 294 294 294 293 291 291 290 291 291 292 293 294 294 295 295 296 296 295 295 295 295 294 293 292 291 289 289 290 291 291 291 290 290 290 289 289 288 288 288 288 288 288 288 288 289 289 289 289 288 288 288 288 288 287 287 288 288 288 288 289 290 290 290 290 290 290 290 290 290 289 289 289 288 287 287 287 287 286 286 286 286 286 286 286 286 286 286 285 285 285 285 285 285 285 284 284 284 284 284 284
295 294 294 294 294 294 293 292 292 291 292 293 294 294 295 295 296 296 296 296 295 295 295 294 293 292 291 290 288 288 289 290 291 291 290 290 289 288 288 287 287 287 287 287 288 288 288 288 288 288 288 288 288 288 287 287 287 288 288 288 288 288 289 290 290 290 290 290 290 289 289 288 288 287 287 287 286 286 286 286 285 285 285 285 285 285 285 285 285 285 285 284 284 284 284 284 283 283 283 282 282 282 282
294 294 294 294 294 294 293 293 293 293 294 294 295 295 296 296 297 297 296 296 295 294 294 293 292 291 290 288 287 286 287 288 289 290 289 289 288 287 287 287 287 287 287 288 288 288 288 288 288 288 288 288 288 288 287 287 287 288 288 288 288 289 289 290 290 290 289 289 288 287 287 287 286 286 286 285 285 285 285 285 285 285 285 285 286 286 286 285 285 285 284 284 283 283 283 283 283 283 282 282 282 282 282
294 294 294 294 294 293 292 292 293 294 294 295 295 296 296 297 297 296 296 295 294 294 293 292 291 289 288 287 286 285 285 286 287 288 288 288 287 287 287 287 287 287 288 288 288 288 289 289 289 289 289 288 288 288 287 287 287 287 287 288 288 289 289 289 289 288 287 287 287 286 286 286 286 286 285 286 285 285 286 286 286 286 286 286 286 286 286 286 285 284 284 283 283 283 283 283 283 282 282 282 282 282 282
294 294 294 294 293 293 292 293 293 294 294 295 296 297 297 297 297 296 294 294 293 293 292 291 289 288 287 286 285 285 286 287 287 288 288 288 288 287 287 287 288 288 288 289 289 289 289 289 289 289 289 288 288 287 287 287 287 287 287 287 287 288 288 287 287 286 286 286 287 287 287 287 286 286 286 286 286 286 286 286 286 286 286 286 286 286 286 285 285 284 284 283 283 283 283 283 283 283 283 282 283 283 283
294 294 294 293 293 293 293 294 294 295 295 296 297 298 298 297 296 294 293 293 292 292 291 289 289 288 287 286 286 286 287 287 288 288 288 288 288 288 288 288 288 289 289 289 289 289 289 289 289 289 288 288 287 287 286 286 286 286 286 286 287 287 287 287 287 286 286 286 287 287 287 287 286 286 286 286 286 286 286 286 286 286 286 286 285 285 285 285 285 285 284 284 284 283 283 283 283 283 283 283 283 283 283
294 294 293 293 293 293 294 294 295 295 296 297 298 298 297 296 294 293 292 292 291 291 290 289 288 288 287 286 286 287 287 288 288 288 288 288 288 289 289 289 289 289 290 290 289 289 289 289 288 288 287 286 286 285 285 285 285 286 287 288 288 288 288 288 288 287 287 287 287 287 287 287 286 286 286 286 286 286 286 286 286 285 285 285 285 285 285 285 285 284 284 284 284 284 284 284 284 284 284 284 284 284 284
293 293 293 293 293 294 294 295 296 296 297 297 298 297 296 295 293 292 291 291 290 290 289 288 288 287 287 287 287 287 288 288 288 288 288 288 288 289 289 289 289 290 290 290 289 289 288 288 287 286 285 285 285 285 286 287 288 289 289 290 290 290 290 289 288 288 287 287 287 287 287 286 286 286 286 286 286 286 286 285 285 285 285 285 285 285 285 285 285 285 285 285 285 284 284 284 284 284 285 285 285 285 284
293 293 293 293 294 294 295 295 296 297 297 297 297 297 295 294 292 291 291 290 290 289 289 288 287 287 287 288 288 287 288 288 288 288 288 288 288 289 289 289 289 289 288 288 288 288 287 287 286 286 286 286 287 287 288 289 290 291 291 291 291 291 290 290 289 288 288 287 287 286 286 286 286 286 286 286 286 286 285 285 285 285 285 285 285 285 285 285 285 285 285 285 285 285 285 285 285 285 285 285 285 285 285
293 293 294 294 294 295 296 296 297 297 297 297 296 296 294 293 291 291 290 290 289 289 288 288 287 286 286 287 287 287 287 287 287 287 287 287 287 288 288 288 288 287 287 287 288 288 288 288 288 288 288 289 289 290 290 291 291 291 292 292 292 291 291 290 289 288 288 287 287 286 286 286 286 286 286 286 286 286 286 285 285 285 285 285 285 285 285 285 285 285 285 285 285 285 285 285 285 285 284 285 285 285 285
294 294 294 294 295 295 296 296 296 296 296 296 295 295 293 291 290 291 290 290 289 289 289 288 287 286 286 286 286 286 286 287 287 287 287 286 286 286 287 287 287 288 288 289 289 289 290 290 290 291 290 290 291 291 291 291 292 292 292 292 292 291 291 290 289 288 287 286 286 286 286 286 286 286 286 286 286 286 285 285 285 285 285 285 285 285 285 285 285 285 285 285 285 284 284 284 284 284 284 284 284 284 284
294 294 294 294 295 296 296 296 295 295 295 295 295 293 292 290 290 290 290 290 289 289 289 288 287 286 285 286 286 286 286 287 287 287 286 286 286 286 286 287 288 289 289 290 290 291 291 291 291 292 291 291 291 292 292 292 292 292 292 292 292 291 290 289 288 287 286 286 286 285 285 285 285 286 286 286 285 285 285 285 285 285 284 284 284 284 284 284 284 284 284 284 284 284 284 284 284 284 284 283 283 283 283
294 294 294 294 295 295 295 295 294 294 295 294 294 292 291 290 290 290 290 289 289 288 287 287 286 285 285 286 286 285 286 287 287 286 286 285 285 285 286 286 287 288 289 290 291 291 291 291 291 291 291 291 292 292 292 293 293 293 293 292 291 290 289 287 286 286 286 285 285 285 285 285 285 285 285 285 285 285 285 284 284 284 284 283 283 284 284 284 283 284 284 284 283 283 283 283 283 283 282 282 282 281 281
294 294 294 295 295 294 294 294 294 294 294 294 293 292 290 290 290 290 289 289 288 287 287 286 285 284 285 285 285 284 285 286 286 285 284 284 284 284 285 286 287 288 289 290 290 291 291 291 290 290 291 291 292 292 292 292 292 292 292 291 290 288 287 285 285 285 285 285 285 285 285 285 284 284 284 284 284 284 284 283 283 283 283 283 283 284 284 285 285 284 284 284 283 283 282 282 281 281 280 280 281 281 281
294 294 295 294 294 293 293 293 293 294 294 294 293 291 290 290 289 290 289 289 289 288 288 287 286 285 285 285 284 284 285 285 285 284 283 284 284 285 287 288 289 290 290 290 290 291 291 291 291 291 291 292 292 292 292 292 292 291 291 289 288 286 285 284 284 284 284 284 285 284 284 284 284 284 283 283 283 283 283 283 283 283 283 283 284 284 286 288 288 287 286 285 283 282 281 281 280 280 280 280 280 281 281
293 294 294 294 293 293 293 293 293 294 294 293 292 291 290 290 289 289 289 289 288 288 288 287 286 286 286 285 284 284 285 284 284 284 284 284 285 286 288 289 290 290 290 290 290 291 291 291 291 291 292 292 292 292 291 291 290 290 289 287 286 284 283 283 283 283 284 284 284 284 284 283 283 283 283 282 282 282 282 282 282 283 283 283 284 285 287 288 288 288 288 286 283 281 280 279 279 279 280 280 280 280 281
293 293 293 293 293 293 293 294 294 294 294 293 292 290 290 289 289 289 289 288 288 288 287 286 286 286 285 284 284 284 284 284 284 284 284 285 286 287 288 289 289 289 289 289 289 290 290 291 291 291 291 290 290 290 290 289 288 288 286 285 284 283 283 283 283 283 283 283 283 283 283 283 283 282 282 282 282 281 281 281 281 282 282 282 284 286 287 287 288 288 288 288 285 281 279 279 279 279 279 280 280 280 281
292 293 293 293 293 294 294 294 294 295 294 293 291 290 289 289 289 289 289 288 288 288 287 286 286 286 285 284 284 286 286 286 286 286 286 286 286 287 287 287 287 287 287 287 288 288 288 289 289 288 288 288 288 288 287 287 286 285 284 283 283 282 282 282 283 283 283 283 283 283 283 283 282 282 282 282 282 281 281 280 280 281 280 282 284 286 287 287 288 288 289 289 287 283 280 279 279 279 279 280 280 280 281
292 293 293 294 294 295 295 295 295 295 294 292 290 289 289 289 289 289 288 288 289 288 287 287 286 286 285 285 286 287 287 287 287 287 286 287 287 287 286 286 286 286 286 287 287 287 287 287 287 287 287 287 287 286 286 285 284 283 282 282 282 282 282 283 283 283 283 284 284 284 284 283 283 283 282 282 282 281 280 279 279 279 279 281 283 286 286 287 288 288 289 289 288 287 282 280 279 278 279 280 280 281 281
293 294 295 296 296 296 296 295 295 294 292 290 289 289 289 289 289 289 289 289 289 288 287 287 287 286 286 286 286 286 285 285 285 286 286 286 287 287 287 287 286 285 285 285 285 285 285 286 286 286 286 285 285 284 284 283 282 282 282 282 282 282 283 283 284 284 284 285 285 284 284 284 283 283 282 281 280 279 279 279 278 279 279 280 282 285 286 287 288 289 289 288 288 287 284 281 280 279 280 280 280 281 281
295 297 297 297 296 296 295 295 293 292 291 290 290 290 289 289 289 289 289 289 289 288 288 287 287 286 286 286 286 286 284 284 285 285 285 286 286 286 286 286 286 286 285 284 284 284 284 284 284 284 284 284 284 283 283 283 282 282 283 283 283 283 284 284 284 285 286 285 285 285 285 284 283 282 281 280 279 278 278 278 278 278 277 279 281 285 286 287 288 288 288 287 287 287 284 282 281 280 280 280 280 280 280
297 298 297 297 296 295 294 293 292 291 290 289 289 290 289 289 288 289 289 289 288 287 287 287 287 287 287 286 286 286 285 285 285 285 285 285 285 285 285 285 286 286 285 284 283 283 283 283 283 283 283 283 283 283 283 283 283 283 283 283 284 284 285 286 286 287 287 286 286 285 284 283 282 281 280 279 278 277 277 277 277 277 277 278 281 285 286 287 287 287 287 287 286 286 284 282 280 280 280 280 280 280 280
297 297 296 295 294 293 292 291 290 289 289 289 289 289 289 289 289 288 289 288 287 287 287 287 287 287 287 287 286 286 286 285 285 285 285 285 284 284 284 284 284 285 284 283 283 283 283 283 283 283 282 282 283 283 283 283 283 283 284 284 285 286 287 287 287 287 287 286 286 285 283 282 280 279 278 277 277 277 277 277 277 277 277 279 282 285 286 287 287 286 286 286 286 286 284 282 280 280 280 280 280 280 281
295 295 294 294 293 292 291 290 289 289 289 289 289 289 289 289 289 288 288 288 288 288 288 288 288 287 287 287 286 286 286 286 285 285 285 284 284 283 283 283 283 283 283 283 283 282 282 282 282 281 281 282 282 283 283 284 284 284 285 286 287 287 288 288 288 287 287 286 284 283 281 280 279 277 277 277 277 276 276 276 276 276 276 279 283 285 286 286 286 286 286 286 285 285 283 281 280 279 280 280 281 281 282
Wind_Speed
3 4 4 4 5 5 4 4 4 4 3 3 3 2 4 4 4 3 3 3 2 1 1 1 1 2 2 2 2 2 2 2 1 2 2 1 1 1 1 1 1 0 1 2 2 2 2 2 2 3 4 4 4 4 4 5 6 6 5 5 4 3 3 2 2 2 2 2 3 3 2 2 1 1 1 1 1 0 0 0 1 1 1 1 0 1 1 1 0 0 0 0 1 1 1 1 1 2 2 2 1 1 0
3 4 4 4 4 4 4 4 4 4 3 3 2 1 2 3 4 3 3 3 3 3 3 3 3 3 2 2 3 3 3 2 2 2 2 2 2 1 1 1 1 2 3 3 3 2 3 3 2 3 3 4 4 5 5 6 7 7 6 6 5 4 4 3 3 2 2 2 3 3 2 2 1 1 1 1 1 1 0 0 0 1 1 1 0 1 1 1 0 0 0 0 1 1 1 1 1 1 2 2 2 1 1
3 3 4 4 3 3 3 4 4 4 4 3 1 1 1 3 4 3 3 3 3 3 4 5 5 4 2 2 3 4 4 3 3 3 3 3 3 3 3 3 3 3 3 3 3 3 4 3 3 3 4 4 5 5 6 7 7 7 7 7 6 5 5 4 4 3 3 3 3 3 2 2 1 1 1 1 1 1 0 0 1 1 1 1 0 0 0 0 0 0 0 0 0 0 0 1 1 1 1 2 2 1 1
2 3 3 3 3 3 3 4 4 5 5 3 2 2 1 3 3 3 3 3 3 3 4 5 5 4 3 3 4 4 5 5 4 3 3 3 3 4 4 4 4 4 4 4 4 5 4 5 4 4 5 5 5 5 6 7 8 8 7 7 6 7 6 5 4 4 3 3 3 3 3 2 2 2 2 2 1 1 1 1 1 1 1 1 1 1 1 1 1 1 1 1 1 1 1 1 0 1 1 1 2 1 1
2 2 3 3 3 3 3 4 4 4 4 4 3 2 2 2 2 2 2 2 2 3 4 4 4 3 3 4 4 5 5 5 4 3 3 4 4 4 4 4 4 4 5 5 4 4 5 5 5 5 6 6 6 6 6 6 7 8 8 8 7 7 7 6 5 4 4 4 4 4 3 3 3 3 2 2 2 2 2 2 2 2 2 2 2 1 2 2 2 2 2 1 1 1 2 2 2 0 1 1 2 2 1
1 1 1 2 2 2 3 3 3 3 1 1 1 1 0 0 1 1 1 2 2 3 3 3 3 3 3 4 4 5 5 5 5 5 6 6 5 5 6 6 6 6 6 6 5 4 5 5 5 5 5 5 5 6 5 5 6 8 9 9 8 8 8 7 6 6 5 5 5 4 4 4 3 3 3 3 3 2 2 2 2 2 2 2 2 2 3 3 3 2 2 2 1 1 1 1 2 2 2 2 2 2 1
1 0 1 1 2 2 3 3 3 2 0 1 1 1 0 0 0 1 2 2 2 3 3 3 3 3 3 4 4 5 5 6 7 7 7 8 8 8 8 8 7 7 7 6 5 5 4 3 3 3 3 3 4 5 6 6 6 7 7 7 8 9 9 8 7 7 6 6 5 4 4 4 4 4 4 3 3 2 2 2 2 2 2 2 2 2 3 3 3 3 3 2 2 2 1 1 2 3 3 3 2 2 1
0 0 1 1 1 2 3 2 2 0 1 1 2 2 2 2 2 3 3 3 3 4 4 4 4 5 4 5 5 5 5 6 8 8 7 7 6 6 6 6 5 5 4 4 3 2 1 0 0 1 1 2 3 4 6 6 6 5 5 6 8 9 9 9 8 7 7 7 7 6 5 5 5 5 4 3 3 3 3 3 2 2 2 2 2 2 2 2 2 2 2 2 2 2 2 2 2 3 3 3 3 3 2
1 1 2 2 2 2 2 1 0 1 1 2 2 2 3 4 4 4 4 5 5 5 4 4 4 4 4 5 5 5 5 6 7 7 6 5 4 4 4 3 3 3 3 3 3 3 2 1 1 1 2 3 3 4 5 5 5 5 6 7 8 9 10 9 9 8 8 8 8 7 6 5 4 4 3 4 4 3 3 3 3 2 2 2 2 2 2 1 1 1 2 2 2 2 2 2 2 1 2 3 3 3 2
3 2 2 2 2 2 2 1 0 1 1 2 2 3 4 4 5 5 4 4 4 4 4 3 3 4 4 4 4 4 5 6 7 6 5 4 4 4 4 3 3 3 3 3 3 3 3 3 3 3 4 4 4 4 5 5 5 6 6 7 8 10 10 10 9 8 8 8 8 8 6 5 4 3 3 4 4 4 4 3 3 2 2 2 2 2 2 2 2 2 2 3 2 1 2 2 2 1 1 2 3 3 3
2 1 1 1 1 2 1 0 1 2 2 2 3 4 4 3 2 2 2 2 2 3 3 3 3 3 3 3 4 4 4 5 5 4 4 4 4 4 4 4 4 4 4 4 4 5 4 4 4 5 5 5 5 5 5 6 6 6 6 7 8 10 10 10 9 8 8 8 8 7 5 5 4 5 4 5 5 4 4 3 3 3 2 2 2 2 3 2 2 2 2 2 2 1 1 2 2 2 1 1 2 3 4
1 1 1 0 1 0 0 1 2 3 3 3 4 4 2 1 1 1 1 1 2 2 2 2 2 3 3 3 4 4 4 4 4 3 3 3 4 4 5 5 6 6 6 6 5 5 5 5 5 5 5 5 6 6 6 6 6 6 7 7 7 8 9 10 9 7 7 7 7 7 6 6 5 6 5 5 5 5 4 4 4 3 2 2 3 3 3 2 2 1 1 1 1 1 1 2 2 2 2 2 2 4 4
1 2 2 2 2 3 2 3 3 3 3 3 3 2 0 0 0 0 0 1 1 2 2 2 2 2 2 3 3 3 4 4 4 3 3 4 4 5 5 6 7 7 7 7 6 6 5 5 5 5 6 6 5 6 6 6 7 7 7 7 6 6 7 8 8 7 7 7 7 7 7 6 6 5 5 5 6 6 6 5 4 2 2 3 3 3 2 2 1 1 0 0 1 1 2 2 2 2 2 2 2 3 3
2 2 2 2 3 4 4 3 3 3 3 3 2 1 0 1 1 0 0 0 0 1 1 1 2 2 2 2 3 3 3 3 3 4 4 4 5 6 6 7 7 8 8 7 6 6 6 7 7 6 6 6 6 5 6 7 7 7 7 6 6 5 6 6 7 7 6 7 7 7 7 7 6 5 5 6 6 6 6 4 3 2 3 3 3 2 1 1 1 1 1 1 1 1 2 2 2 2 2 2 1 1 2
2 2 2 2 3 3 3 2 2 3 3 2 2 1 1 1 1 1 1 1 1 1 1 1 1 2 2 2 3 3 3 4 4 4 5 5 5 6 7 7 7 7 7 6 6 6 7 7 7 6 5 5 5 5 5 6 7 6 6 5 5 4 4 4 5 7 7 7 7 6 6 7 7 6 6 7 7 6 5 4 3 2 3 3 2 1 0 0 0 1 0 1 1 2 2 3 3 3 2 1 1 1 2
2 2 2 2 2 2 2 2 2 2 2 2 1 1 1 2 2 1 1 1 2 2 2 3 3 4 4 4 4 4 5 5 6 6 6 6 7 7 7 6 6 6 6 7 7 6 7 6 6 5 3 3 3 3 4 5 6 6 5 5 4 4 4 4 4 5 7 7 7 6 7 7 7 7 7 7 7 6 5 4 3 2 2 1 0 0 0 0 1 1 1 1 1 2 2 3 3 2 2 2 1 1 2
1 1 2 2 2 2 2 1 0 1 1 1 1 1 1 1 2 2 3 3 4 4 4 5 5 5 5 4 4 4 5 6 6 7 7 7 7 7 6 6 6 7 7 8 7 6 6 6 5 4 3 2 2 3 4 5 5 5 5 4 4 4 4 4 4 4 5 6 7 7 7 8 8 8 7 7 6 5 4 3 2 2 1 1 1 1 1 1 1 1 1 1 1 2 2 2 2 2 2 2 2 2 2
0 1 1 1 1 2 1 1 1 1 1 1 1 1 2 3 4 5 5 5 5 5 5 5 5 5 4 4 4 4 4 5 6 7 7 7 7 7 6 5 6 7 7 8 8 8 7 7 6 5 4 3 3 3 4 5 5 5 4 4 5 4 4 4 4 4 4 4 5 6 7 7 8 7 7 6 5 4 3 2 2 2 2 2 2 2 1 1 1 1 0 1 1 2 2 2 2 3 3 3 3 3 3
1 1 0 1 1 1 1 2 3 2 2 2 2 3 4 5 6 6 5 5 5 4 4 4 4 4 4 4 4 4 5 6 7 7 7 7 7 6 5 5 5 6 7 7 8 8 8 8 7 6 6 5 5 5 5 5 5 5 5 5 4 4 4 4 4 4 4 4 4 5 7 7 7 6 6 5 4 3 2 2 2 2 2 2 2 2 2 1 1 0 1 1 2 2 3 3 3 3 3 3 3 4 4
2 2 1 1 1 1 3 4 4 3 3 4 4 5 6 6 5 5 5 4 4 3 3 3 4 4 4 4 4 4 5 6 6 6 6 6 6 6 5 5 5 5 6 6 7 7 7 7 7 7 7 7 6 6 6 6 6 5 5 4 4 3 4 4 4 4 4 4 4 4 5 6 6 4 4 3 3 3 2 2 2 2 2 2 2 2 1 1 1 1 2 2 3 3 3 3 4 4 4 4 4 4 4
3 3 4 3 3 4 5 5 4 3 3 4 5 5 5 4 4 4 3 3 2 2 2 3 4 5 5 5 5 5 5 5 5 5 5 5 6 6 6 5 5 5 6 6 6 6 6 7 7 7 7 7 6 6 5 5 5 5 4 4 4 4 4 4 4 4 3 4 4 4 4 4 4 3 2 2 2 2 2 2 2 1 1 1 1 1 2 2 3 3 3 3 4 4 4 4 4 4 4 4 4 3 3
5 5 5 5 5 5 5 4 3 3 3 3 3 3 3 3 2 2 2 2 2 2 2 3 3 5 5 5 5 4 4 3 3 3 4 5 5 5 5 5 5 5 5 5 5 6 6 6 6 6 6 5 4 3 2 2 3 3 4 4 4 4 4 3 3 3 3 3 4 4 4 4 3 2 2 2 1 1 1 1 1 1 2 2 3 3 3 4 4 4 4 4 3 4 3 3 3 3 3 3 3 3 3
5 5 5 5 4 4 3 3 3 3 3 2 2 2 1 1 1 2 2 2 2 2 2 3 3 5 5 5 4 3 2 2 2 2 3 4 4 4 4 4 4 4 4 4 4 4 4 4 4 4 3 2 1 2 2 3 3 4 4 4 3 3 3 3 3 3 3 4 4 3 3 3 2 2 2 2 1 1 2 2 3 4 4 4 4 4 4 4 4 4 3 3 3 2 2 2 2 2 2 2 2 2 3
5 5 4 4 3 3 3 2 2 2 2 1 1 1 1 1 1 1 1 1 2 2 3 3 4 4 5 4 3 2 1 1 1 1 2 3 3 3 3 3 3 3 3 3 3 3 3 4 4 4 3 3 3 4 4 4 4 4 4 4 4 3 4 4 4 4 4 4 3 3 3 3 2 2 2 2 3 4 5 6 6 7 6 5 4 4 4 3 3 3 2 2 2 1 1 2 2 2 2 2 2 2 3
5 4 3 3 3 3 2 2 2 2 1 1 1 1 1 1 1 1 1 2 2 3 3 3 4 4 5 4 2 1 0 0 0 1 2 2 2 3 3 3 3 3 3 3 3 3 3 4 4 4 4 4 4 4 4 4 4 5 5 4 4 4 4 4 4 4 4 3 2 3 3 3 3 4 5 6 7 8 8 8 8 7 6 5 4 4 4 3 3 2 1 1 1 1 1 2 2 2 2 2 2 3 3
3 3 3 2 2 2 2 2 2 2 1 1 1 1 1 1 1 1 2 2 3 3 3 3 3 4 5 4 2 1 1 1 0 1 1 1 1 2 2 2 3 4 4 4 4 4 4 4 4 4 4 4 4 4 4 4 5 5 5 4 4 4 4 4 3 3 3 3 3 3 4 6 7 8 9 9 9 8 7 7 6 5 4 4 4 4 4 3 3 2 1 1 1 1 1 2 2 2 2 2 3 3 4
3 2 2 1 2 2 2 2 2 2 2 1 1 1 1 1 1 1 2 2 3 3 3 3 3 4 5 4 3 2 2 2 1 1 1 1 1 1 1 2 3 5 5 5 5 5 5 4 4 4 4 4 4 4 4 4 5 5 5 4 4 4 3 3 3 3 3 3 4 6 8 8 8 8 7 7 6 5 4 4 4 4 4 4 4 4 4 3 3 2 2 2 2 2 2 2 2 2 2 3 3 4 4
3 1 1 1 1 1 2 2 2 2 2 1 1 1 1 0 1 1 1 1 2 3 3 4 5 5 5 4 2 3 3 3 2 2 2 2 2 2 1 2 3 5 5 5 4 5 5 5 4 3 4 4 4 4 4 4 4 4 4 4 4 3 3 3 3 2 2 4 6 7 6 5 4 3 2 2 3 4 4 4 3 3 4 4 4 4 4 4 3 3 2 2 2 2 2 3 3 3 3 3 4 5 4
3 2 1 1 1 2 2 2 2 2 2 2 2 1 1 1 1 2 1 1 2 3 3 4 6 6 6 4 3 3 3 3 3 2 2 2 2 2 2 2 3 4 5 5 5 5 6 6 4 4 4 5 5 4 5 5 4 4 3 3 3 2 2 3 3 3 4 4 3 2 1 1 1 2 3 4 4 3 3 3 3 4 4 5 5 5 4 4 4 4 3 2 2 3 3 3 4 4 4 4 4 4 4
3 2 2 2 2 2 2 2 2 2 3 3 3 2 1 1 2 2 2 2 2 2 3 4 5 6 6 5 4 3 2 3 3 3 3 3 3 3 2 2 3 4 4 4 4 5 7 6 5 4 5 5 4 4 4 4 4 4 3 3 2 2 2 3 3 4 4 4 3 3 3 3 3 4 3 3 2 2 3 4 4 5 5 6 6 6 6 5 5 4 3 2 3 3 3 4 4 5 4 4 4 4 4
2 2 2 3 3 2 1 2 2 2 2 2 2 2 2 1 1 2 2 2 3 3 3 3 4 5 6 6 4 3 3 3 4 4 3 3 3 2 2 3 4 4 4 3 4 5 6 6 5 4 5 5 5 4 5 5 4 3 3 3 3 3 3 3 4 4 4 4 4 4 3 3 2 1 1 1 2 3 4 5 6 6 7 7 6 6 6 5 4 3 3 3 3 3 4 4 5 5 5 5 5 5 5
2 2 3 2 2 1 1 1 1 1 2 2 2 2 2 2 2 2 2 3 3 4 4 3 3 4 5 5 3 3 3 4 4 4 2 2 2 2 2 2 3 4 4 4 4 5 6 6 6 5 5 5 5 5 6 6 5 4 4 3 3 2 2 2 2 3 3 3 3 3 2 1 1 0 1 2 3 4 5 6 7 7 7 7 7 6 5 4 3 3 3 3 3 3 3 4 5 5 5 5 5 6 5
2 2 2 2 1 1 1 1 1 1 1 1 1 1 1 2 2 2 2 3 4 5 4 4 4 4 5 4 2 1 2 4 5 4 3 2 2 2 2 2 2 3 4 4 4 5 6 7 6 6 5 5 5 5 6 6 6 5 4 3 3 2 2 2 1 2 2 3 3 3 2 1 0 1 2 3 4 5 6 7 7 7 7 6 6 5 5 4 4 3 3 3 3 3 3 4 4 5 5 5 6 6 6
3 2 2 1 1 1 1 1 1 1 1 1 1 1 1 1 2 2 3 4 4 4 4 4 5 5 5 3 2 0 2 4 5 5 4 3 3 2 2 2 2 2 2 3 3 4 5 5 5 5 5 5 5 6 6 6 6 5 4 3 3 2 2 1 2 2 2 3 3 2 1 1 2 3 4 5 6 6 7 7 6 6 5 5 5 4 4 4 4 3 3 3 3 3 3 4 5 5 6 6 6 6 5
2 2 2 1 1 1 1 1 1 1 1 1 1 1 1 1 2 2 3 4 4 4 4 4 5 5 5 4 2 1 2 4 5 6 4 3 3 3 3 3 2 2 2 2 2 3 3 4 4 4 5 5 5 5 5 5 5 4 4 3 2 2 2 2 2 2 2 2 2 1 1 2 4 5 6 6 6 6 5 5 5 5 5 5 4 4 3 3 3 2 3 3 3 3 4 4 5 5 5 6 5 5 5
2 2 1 1 1 2 1 1 0 1 2 2 2 2 2 2 2 3 3 4 4 4 5 5 5 4 5 4 3 2 2 4 5 5 5 4 3 3 3 3 2 2 2 2 2 3 3 4 4 4 4 4 4 4 4 4 3 3 3 3 3 2 2 2 2 2 2 2 2 2 3 4 5 5 4 4 4 4 4 5 5 5 5 5 5 4 3 2 2 2 3 3 3 3 3 4 4 4 4 5 5 4 4
1 1 1 1 2 2 2 1 1 1 1 1 2 2 3 3 3 4 4 4 5 5 5 5 5 5 4 4 3 2 2 4 5 6 5 4 3 3 3 2 2 2 2 2 2 3 3 4 4 4 3 3 3 4 3 3 3 2 3 3 3 3 2 2 2 3 2 2 3 3 4 4 4 3 3 3 3 4 4 4 5 5 5 5 5 4 3 2 2 2 3 3 4 4 3 3 3 4 4 4 5 5 4
1 1 1 2 2 2 2 1 1 1 1 1 2 2 3 3 4 5 5 4 4 4 5 5 5 4 4 3 2 2 2 3 3 4 5 4 3 3 3 3 3 3 3 3 3 3 3 3 4 4 3 3 3 4 3 3 2 2 3 3 3 3 2 2 2 2 2 2 2 2 2 2 2 2 2 3 3 4 4 4 4 4 4 4 4 4 3 3 3 3 4 4 4 4 4 4 4 4 4 5 5 6 5
1 1 1 2 2 1 1 0 0 1 1 2 2 3 4 4 5 5 4 3 3 3 4 4 4 3 3 3 2 2 2 1 1 2 4 4 4 4 4 4 4 3 3 4 4 4 4 4 4 4 3 3 3 3 3 2 2 1 1 1 2 2 1 1 0 0 0 0 1 1 1 2 2 2 2 3 3 4 4 4 4 4 5 5 5 4 3 3 3 4 4 4 4 5 5 5 5 5 5 5 6 6 7
1 1 1 1 1 1 0 0 1 1 2 3 3 4 5 5 5 4 3 3 3 3 3 3 3 2 2 2 2 2 2 2 3 3 4 5 5 5 5 5 5 4 4 4 4 4 4 4 4 4 3 3 3 2 1 1 1 1 2 2 2 2 1 1 0 1 1 1 1 1 1 2 2 2 3 3 4 4 5 5 5 5 5 5 5 5 4 4 4 4 4 4 5 5 6 6 6 6 6 6 6 7 7
2 1 1 1 1 1 1 1 1 2 3 4 4 5 6 5 4 3 3 2 3 3 3 2 2 2 2 2 3 3 3 4 5 5 5 6 6 6 6 5 5 5 5 5 5 5 5 4 4 3 2 2 2 2 2 2 2 2 1 2 2 2 1 1 2 3 3 3 3 3 3 3 3 3 4 4 4 5 5 5 5 5 5 5 5 5 5 4 4 4 4 5 5 6 7 7 7 7 7 7 7 8 8
1 2 2 2 2 1 1 1 2 2 3 4 5 6 6 5 3 2 2 2 2 2 2 1 1 1 2 3 3 3 3 4 5 4 5 5 6 6 6 5 5 5 5 5 4 4 4 3 3 2 2 2 2 2 2 2 2 1 1 1 2 3 3 4 4 5 4 4 4 4 4 3 3 3 4 4 4 5 5 5 5 5 5 5 5 5 5 5 6 5 5 6 6 7 7 7 7 8 8 8 8 9 9
1 2 1 1 0 0 1 2 3 3 4 5 6 6 5 4 3 1 1 2 2 2 2 1 1 2 2 2 2 3 2 3 4 4 5 5 5 6 5 5 4 4 4 3 3 3 3 3 3 3 3 3 3 2 2 2 2 2 2 3 3 4 4 5 5 6 5 5 4 5 4 3 3 3 3 4 4 4 4 4 5 5 5 5 5 5 6 6 7 7 7 7 7 7 7 8 8 8 9 9 9 10 10
1 1 0 1 1 1 2 3 3 4 5 6 6 5 4 3 2 2 2 2 2 2 2 2 2 2 3 2 2 2 2 2 3 4 4 4 4 4 4 4 3 3 2 2 2 3 4 4 4 4 4 4 3 3 2 3 3 3 3 3 4 4 4 5 6 7 6 6 5 5 4 3 2 2 3 3 4 4 4 4 5 5 6 6 6 6 6 7 7 8 8 8 8 8 8 8 9 9 9 9 10 10 10
0 0 1 1 1 2 3 3 4 5 5 6 5 5 3 2 2 2 3 2 2 2 2 2 3 3 3 3 2 2 2 2 2 2 3 2 2 3 3 3 3 2 3 3 3 4 5 5 5 5 5 4 3 3 3 3 3 2 2 2 2 4 5 6 7 7 7 6 5 4 3 3 2 2 2 3 4 4 4 5 5 6 6 6 6 6 7 7 8 8 8 8 8 9 9 9 9 9 9 9 10 9 9
0 1 1 2 2 3 3 4 5 5 5 5 5 4 3 3 3 3 3 3 3 2 2 3 3 3 3 2 2 2 2 2 2 2 3 2 2 2 3 3 3 3 3 3 3 3 4 4 5 5 4 4 4 4 3 2 1 1 0 2 4 6 7 7 7 7 6 5 4 3 3 3 3 2 2 3 4 4 5 5 6 6 6 6 7 7 7 7 8 8 8 9 9 9 9 9 9 9 9 9 9 9 8
0 0 1 2 3 3 4 4 5 5 6 5 5 3 3 3 3 4 4 4 3 3 3 3 3 3 2 2 2 2 2 2 3 3 3 3 3 3 3 3 3 3 3 3 3 3 3 3 4 4 4 4 4 3 3 2 2 2 3 5 6 7 7 7 6 6 5 4 4 4 3 3 3 2 3 3 4 4 5 6 6 6 6 6 7 7 7 8 8 8 8 8 8 8 9 9 9 9 9 8 8 8 8
1 1 2 3 4 4 4 5 5 5 6 5 4 3 3 3 3 4 4 4 3 3 3 3 3 3 2 2 2 2 2 2 2 3 3 3 3 3 3 3 3 3 3 2 2 3 3 3 3 3 3 3 4 4 4 3 3 4 5 6 7 6 6 5 5 4 4 4 4 4 3 2 2 3 3 4 4 5 5 6 6 6 6 6 7 7 7 7 7 7 8 8 8 8 8 8 8 8 7 7 6 6 6
2 2 3 4 4 4 5 5 5 6 5 5 4 4 3 3 3 3 3 3 3 2 3 3 3 2 2 2 2 1 1 1 2 2 2 2 2 2 3 3 3 3 3 3 3 2 3 3 3 3 3 4 4 5 5 5 5 5 6 6 6 5 5 4 4 4 4 4 4 3 2 2 2 3 4 5 5 6 6 6 6 6 6 6 6 6 6 7 7 7 7 7 7 7 7 6 6 5 5 5 5 5 6
3 3 4 4 5 5 6 6 6 6 6 5 5 4 3 3 3 3 3 3 2 2 2 3 3 2 3 2 1 1 1 2 2 2 2 2 2 2 3 3 3 3 3 3 3 3 3 3 3 3 4 4 5 5 5 4 4 5 5 5 4 4 4 4 4 4 4 3 3 2 1 2 2 3 4 5 5 6 6 6 6 6 5 5 5 6 9 10 11 9 8 7 6 6 5 4 4 3 3 4 5 5 6
4 4 5 5 6 6 6 6 7 7 7 7 5 4 4 4 3 3 3 3 3 2 3 2 2 2 3 2 1 1 2 2 2 2 2 1 2 3 4 4 4 4 4 4 4 4 4 4 4 5 5 5 5 4 4 4 4 5 4 4 3 3 3 4 4 4 3 2 1 1 2 2 3 3 4 5 5 6 7 7 6 6 5 5 6 7 10 11 12 13 12 9 7 4 3 3 3 3 4 4 5 6 6
4 5 5 6 7 7 7 8 8 9 8 7 6 5 4 4 3 3 3 3 2 2 3 2 2 2 2 1 0 2 2 3 2 2 1 1 1 2 3 4 4 4 4 4 4 4 4 5 5 5 5 4 4 4 4 5 5 4 3 3 3 3 3 3 3 3 2 2 2 2 2 3 4 4 4 5 6 6 7 7 6 6 6 5 6 9 11 12 13 13 13 11 7 3 2 2 3 4 4 5 6 6 7
5 5 6 6 7 7 8 9 9 9 9 7 6 5 4 3 3 3 3 2 2 2 3 2 2 2 2 1 1 2 2 3 2 2 1 1 1 2 2 2 3 4 4 4 4 4 5 5 5 5 4 5 5 5 5 5 4 3 2 2 2 3 2 2 2 2 2 2 2 2 3 4 5 5 5 5 6 6 6 7 7 6 6 6 8 10 12 12 12 12 11 9 6 3 2 2 3 4 5 5 6 6 7
5 6 6 6 7 8 9 9 9 9 8 7 5 4 4 4 4 3 3 2 2 3 3 2 2 3 2 1 1 2 2 2 2 2 2 2 2 2 2 2 3 4 4 4 4 4 5 5 5 4 5 6 6 6 5 4 3 2 2 2 2 2 1 1 2 2 2 3 3 4 4 5 5 5 5 5 5 5 6 6 7 7 7 8 9 12 12 12 12 11 9 7 6 6 4 3 3 4 4 5 6 7 7
6 6 7 7 7 8 9 9 9 8 7 6 5 5 5 5 4 3 2 3 3 3 3 3 3 2 1 1 2 2 2 2 2 2 2 3 3 3 3 4 4 4 4 4 4 5 5 5 5 5 6 6 6 5 4 3 2 2 2 2 1 0 1 2 2 3 4 5 6 6 6 5 5 5 5 4 4 5 5 6 6 7 7 7 9 11 11 11 10 9 7 7 8 8 6 5 4 5 5 6 6 7 8
7 7 7 7 6 7 8 8 7 7 6 5 5 5 5 4 4 3 3 3 3 3 3 3 3 2 2 2 2 2 2 2 2 3 3 3 3 3 4 5 5 5 4 4 4 5 6 6 6 6 6 6 5 4 3 3 3 2 2 1 1 1 2 3 4 5 6 7 8 8 6 6 6 5 4 4 4 5 6 7 7 8 7 8 8 10 10 9 8 8 9 9 10 10 8 6 5 6 6 6 7 7 8
8 8 8 7 6 6 6 6 6 5 4 4 4 3 3 3 3 3 3 3 3 3 3 3 2 2 2 2 3 3 3 3 3 3 3 4 4 4 5 5 5 5 5 5 5 5 6 7 7 6 5 4 3 3 3 3 3 2 2 1 1 2 3 4 5 6 7 8 9 8 6 5 5 4 4 5 5 6 6 6 7 7 7 7 7 8 8 8 8 9 10 11 11 12 9 7 6 6 7 7 7 8 9
8 8 8 7 6 6 5 5 4 4 3 3 3 2 1 2 2 3 3 2 2 2 2 2 2 2 3 3 3 3 3 3 3 3 3 4 4 5 5 5 5 5 5 5 6 6 7 6 5 3 2 2 3 3 3 3 3 2 2 2 3 4 4 5 5 6 7 8 8 7 6 5 4 4 4 5 6 6 6 6 6 6 6 6 7 7 7 8 9 10 11 12 13 13 10 7 6 7 6 6 7 8 9
8 7 7 6 6 5 5 5 4 3 3 3 2 2 2 2 2 3 2 2 2 2 3 3 3 3 3 3 3 3 3 3 3 4 4 4 4 5 5 5 5 5 5 6 6 7 6 4 2 1 2 3 3 4 3 3 3 3 3 4 4 4 4 4 5 6 7 7 6 5 4 4 4 4 5 5 6 6 5 5 5 5 4 5 6 7 8 9 10 11 13 14 14 13 9 7 6 7 6 7 7 8 9
Wind_Direction
155 147 149 143 137 134 130 122 114 106 97 92 94 103 114 112 109 106 115 124 132 150 153 181 227 244 208 168 141 124 121 115 110 114 119 119 118 127 143 170 188 200 228 237 235 218 204 200 203 212 211 200 187 179 186 185 181 173 174 176 179 180 173 171 172 177 170 155 139 124 127 133 146 161 157 147 124 29 352 54 113 112 110 111 155 251 255 250 212 165 151 272 258 222 197 198 323 329 323 313 294 277 304
128 135 136 132 128 125 120 114 109 104 88 73 62 57 104 112 114 120 133 145 154 158 153 175 208 233 208 171 151 144 145 148 151 155 150 152 160 177 179 185 194 202 212 218 221 213 200 193 194 207 212 206 196 192 194 190 184 178 177 178 180 179 174 172 175 185 178 161 142 129 130 138 151 163 147 130 119 115 86 95 116 115 116 128 194 239 249 258 240 190 181 212 238 231 191 157 113 17 332 317 308 302 322
88 114 119 119 117 115 112 112 113 111 103 91 49 322 109 127 137 154 160 165 165 155 159 180 204 224 202 178 172 171 170 171 174 173 166 169 174 179 179 185 195 201 205 208 209 209 202 195 195 208 212 209 204 203 198 192 187 183 181 181 181 179 176 176 179 185 177 161 144 135 135 140 149 155 133 121 117 130 130 124 120 119 115 119 135 236 272 308 335 55 67 37 335 319 261 140 118 71 328 301 288 280 298
74 100 115 121 123 121 120 122 126 127 133 149 189 229 176 160 162 169 163 160 159 161 174 190 205 218 203 194 193 196 192 187 181 174 179 187 191 188 181 184 193 200 200 205 209 208 202 199 199 204 206 205 204 201 197 194 191 187 186 185 183 180 179 180 183 184 174 159 147 141 144 150 156 153 138 131 132 147 154 150 141 129 112 106 99 81 31 22 26 39 31 29 26 16 346 341 60 122 254 266 264 256 261
74 98 117 126 130 132 133 137 143 150 155 165 178 191 185 175 163 150 154 160 170 182 195 202 208 215 206 202 204 210 207 199 188 181 196 205 208 204 192 192 198 204 200 205 213 215 208 205 205 204 202 201 199 195 194 194 194 191 189 187 184 182 181 183 186 186 175 163 154 152 159 163 163 154 146 148 157 164 159 153 138 115 91 67 48 39 31 25 21 27 20 21 27 33 359 342 334 343 271 270 273 263 247
81 79 110 125 134 136 138 145 156 172 166 141 128 146 147 69 64 125 187 198 200 202 211 213 213 215 213 211 211 215 216 209 202 199 206 208 209 208 205 205 207 210 205 205 211 222 221 218 216 215 208 200 195 193 192 194 197 198 193 189 186 184 183 185 188 188 179 170 164 161 164 165 164 156 154 160 167 164 150 140 129 109 91 70 46 28 27 20 13 9 8 7 8 25 35 5 343 337 331 317 303 293 255
113 31 78 117 130 136 148 162 176 190 124 82 95 123 116 85 188 198 214 219 222 225 226 223 218 217 217 218 219 221 221 215 212 214 216 215 214 213 213 214 215 215 214 212 212 217 218 219 222 230 225 207 195 194 193 197 201 203 197 194 192 188 186 188 190 189 182 177 172 167 167 166 165 162 162 163 161 149 136 132 130 121 111 98 76 43 28 18 9 2 358 354 350 351 18 26 6 343 335 326 313 302 292
110 32 78 126 157 169 178 188 199 220 125 141 160 175 191 201 207 210 216 218 221 226 227 223 219 217 219 220 221 224 226 224 223 227 229 228 226 225 228 232 234 235 237 240 244 252 279 339 327 243 250 227 207 200 201 201 202 199 201 202 200 194 190 191 192 191 186 182 177 173 173 172 169 166 162 158 148 136 131 129 128 128 117 107 90 65 41 24 8 360 350 345 345 348 348 2 7 350 333 322 311 303 301
169 160 161 184 205 223 235 256 328 52 144 169 184 198 202 203 204 208 211 213 216 223 226 224 222 222 224 225 226 230 232 231 230 233 236 238 240 244 250 255 264 279 291 296 301 310 313 313 293 233 234 229 217 205 207 208 206 203 204 203 200 195 194 194 194 193 189 186 182 178 176 171 167 162 155 146 139 132 127 122 118 116 105 97 89 79 65 45 22 6 352 351 354 357 350 354 4 10 336 322 313 307 307
183 186 186 204 243 298 316 335 84 149 178 195 210 220 218 212 207 210 212 215 220 231 236 238 240 242 244 245 245 245 242 239 237 237 240 241 239 239 242 245 249 258 264 262 258 257 252 243 232 224 224 221 213 204 204 207 208 207 205 203 200 197 196 195 195 193 190 188 186 181 172 161 151 147 146 140 135 130 121 113 104 92 87 86 86 84 74 55 34 16 7 3 4 4 2 4 11 48 15 327 315 312 316
187 195 217 266 323 331 326 290 177 177 184 203 221 229 230 227 222 227 234 238 245 258 260 259 260 263 268 268 266 262 261 259 255 250 248 247 245 241 237 234 231 229 231 231 230 230 234 230 224 220 216 211 205 202 204 205 204 202 201 202 202 200 196 194 194 193 191 188 185 178 162 148 142 142 143 140 135 125 114 101 88 73 73 77 79 74 64 52 37 21 13 6 1 9 44 37 32 41 61 17 331 323 319
150 163 195 172 126 130 233 203 190 185 184 201 222 238 250 279 313 292 291 280 273 273 275 273 271 272 272 275 278 280 282 281 279 272 260 256 255 252 242 237 233 232 231 231 231 230 234 232 226 219 215 209 205 204 204 203 200 197 200 202 202 201 197 192 190 191 189 184 177 165 151 143 139 139 139 132 120 104 93 83 76 72 74 75 72 64 58 52 45 39 41 32 31 54 63 60 54 46 51 33 356 333 324
176 175 188 180 162 150 175 192 199 196 194 206 224 261 323 28 274 256 251 266 272 277 289 292 290 285 283 285 286 286 284 286 288 284 268 260 260 259 251 246 243 242 240 239 238 237 240 241 236 225 220 216 211 206 201 198 197 199 200 200 200 200 197 192 188 185 180 173 164 155 148 142 135 128 119 106 94 85 79 76 75 81 80 74 68 61 55 50 47 51 58 65 69 71 71 75 74 64 57 43 12 337 324
195 188 195 195 182 165 178 196 214 222 226 232 243 269 168 142 141 130 108 70 308 315 325 320 313 309 306 301 296 293 293 298 300 295 277 268 265 267 261 257 253 250 249 247 245 243 244 245 243 234 226 220 216 210 199 195 196 200 199 197 196 195 192 189 184 175 167 162 157 151 145 135 123 110 97 88 84 82 79 78 78 80 70 65 61 60 53 46 44 44 7 359 21 52 60 60 59 59 58 52 30 334 319
199 195 199 206 205 191 186 203 232 251 260 265 269 240 104 84 74 65 65 54 37 25 12 354 344 344 340 330 323 320 323 325 323 315 300 288 279 276 269 265 262 259 257 255 252 247 247 248 249 245 236 226 219 214 201 196 196 200 197 193 189 182 178 177 173 164 159 156 152 144 132 121 110 103 95 89 86 85 85 83 79 69 61 58 55 54 59 93 106 113 60 359 5 23 39 41 39 35 37 31 11 330 318
198 194 200 205 211 214 200 207 234 272 288 298 312 8 53 57 55 62 67 65 60 54 40 28 19 11 3 354 345 337 336 336 335 331 322 310 300 291 283 278 275 272 268 265 263 257 255 255 256 255 247 232 219 214 201 197 196 196 190 184 176 168 164 161 156 153 151 146 139 127 116 109 104 101 98 95 92 89 89 87 82 72 69 72 92 224 219 182 152 154 135 89 49 39 45 45 39 24 10 355 341 333 320
193 199 208 209 212 218 210 199 194 345 337 335 340 6 51 63 68 71 66 60 54 46 37 29 21 13 2 351 342 336 337 340 342 339 332 325 318 312 305 296 287 281 275 273 274 273 269 267 264 262 247 227 210 203 192 191 192 190 183 175 169 166 159 152 146 145 140 131 123 115 108 104 101 99 97 95 93 92 94 96 100 109 126 159 188 203 198 188 171 164 130 99 80 72 63 54 41 18 353 339 333 331 316
86 173 222 232 232 231 206 124 81 62 29 4 5 49 73 68 63 59 56 52 47 42 35 27 19 7 349 336 330 331 341 348 352 349 339 332 328 326 319 307 296 287 280 278 278 279 277 275 271 267 249 230 210 196 186 186 187 184 178 174 172 167 154 145 138 135 126 115 108 106 103 99 96 94 93 92 94 99 109 122 141 163 175 183 185 183 172 169 168 163 107 69 57 58 48 37 22 2 341 332 330 326 316
100 134 218 262 259 245 107 79 69 61 52 46 48 59 60 57 53 51 50 48 44 39 34 25 11 351 333 325 327 338 356 4 5 357 343 335 331 330 324 311 300 292 285 280 278 278 277 276 273 268 255 240 222 203 194 189 185 180 178 176 169 155 139 131 125 119 111 101 94 91 93 93 90 89 91 97 105 118 133 151 169 183 183 183 177 169 160 156 149 131 55 30 23 24 15 4 353 341 332 329 326 324 318
114 122 99 66 36 55 68 65 59 51 50 49 48 49 49 47 44 43 44 43 40 34 32 21 5 342 331 329 338 356 13 17 13 359 344 336 333 332 326 317 307 299 290 284 279 276 276 273 269 264 255 243 228 211 203 193 184 176 174 166 150 129 119 112 106 99 93 88 83 78 83 86 88 88 94 105 118 133 150 168 178 180 175 169 160 146 131 105 51 12 7 2 358 356 349 342 335 330 328 327 326 322 318
108 100 90 78 65 61 64 62 58 51 49 48 47 47 45 41 37 36 38 35 30 22 27 20 5 346 335 337 349 11 23 23 15 357 343 338 338 339 334 327 318 308 299 291 285 281 278 273 267 261 255 244 231 215 203 189 174 165 157 143 125 115 108 99 89 79 79 79 80 79 81 85 88 92 100 114 129 147 163 175 173 157 139 115 88 64 38 18 3 353 350 346 341 337 333 329 326 325 323 322 321 319 316
96 90 89 84 77 72 74 73 68 59 55 52 50 49 45 38 31 30 28 23 16 9 17 17 6 348 335 339 353 19 30 28 14 352 342 343 345 344 337 331 325 319 311 305 300 296 291 284 278 270 263 253 236 204 174 146 129 122 113 109 107 107 101 92 81 73 73 77 81 84 87 89 93 100 115 134 152 158 155 141 106 75 55 38 24 11 2 355 348 341 337 332 327 324 323 321 319 314 310 309 310 310 308
96 94 95 94 92 91 94 92 85 75 69 62 51 45 38 29 23 24 17 12 8 2 3 9 3 345 331 334 350 29 41 33 11 348 349 350 349 343 338 335 334 333 330 326 324 324 322 319 316 310 303 310 9 73 80 83 83 83 79 80 84 90 85 82 80 79 76 79 83 90 94 97 101 110 131 138 130 99 63 44 33 25 22 14 4 353 345 338 332 326 320 316 313 313 311 306 298 288 283 285 290 289 288
103 103 104 106 108 111 113 113 109 103 98 84 57 30 20 18 20 23 13 8 4 358 356 359 354 338 323 324 338 45 52 31 355 355 2 356 349 344 344 343 345 355 356 356 360 11 12 11 9 8 10 25 42 53 59 65 71 74 72 70 69 75 77 78 81 83 81 82 88 98 103 102 101 102 98 75 50 32 23 16 11 5 1 355 347 336 325 317 311 306 302 299 296 290 275 267 263 259 262 267 272 276 277
110 112 115 118 121 125 130 134 135 132 129 118 89 47 22 17 19 14 9 8 6 358 351 346 339 326 313 311 319 58 108 236 309 33 21 5 353 355 354 354 1 25 26 26 30 42 47 46 41 33 30 36 47 55 57 63 69 74 73 70 69 73 78 81 84 88 90 95 103 109 99 82 62 45 31 22 15 8 2 356 351 345 340 332 321 310 304 299 294 288 280 269 255 241 239 240 245 252 262 267 272 276 279
115 119 126 132 138 140 146 150 153 153 149 139 113 63 28 17 9 355 7 9 4 346 329 320 313 308 300 297 291 204 199 199 170 81 67 43 17 16 8 13 29 46 44 42 42 51 61 64 61 52 45 48 57 65 66 69 73 77 77 76 75 77 84 91 97 102 111 115 108 79 51 35 24 15 9 3 357 351 344 335 326 315 306 299 294 292 290 287 280 265 255 250 249 242 246 252 257 262 267 273 277 278 279
111 121 142 157 160 155 154 161 169 174 168 160 135 68 39 18 356 338 8 5 349 320 304 297 294 291 289 283 264 205 189 177 155 133 137 117 88 56 32 51 65 67 61 59 60 65 69 71 71 67 60 59 64 72 74 77 79 83 86 87 88 91 102 112 119 125 126 93 53 34 27 19 11 3 357 349 338 321 302 286 276 273 275 278 281 281 277 271 261 247 246 254 263 265 273 276 276 271 268 272 276 275 274
117 129 171 206 204 185 177 177 177 177 173 170 156 105 73 10 297 284 352 348 328 306 300 297 295 291 288 281 255 207 185 170 157 151 136 119 105 93 72 78 86 89 84 81 80 84 83 84 85 85 78 74 73 75 77 80 84 88 94 99 105 113 122 125 125 125 93 53 37 26 21 16 7 351 327 291 263 249 245 246 253 266 276 278 275 269 262 255 248 242 245 255 265 275 278 279 278 276 270 269 269 269 270
137 147 167 204 221 217 207 195 182 173 171 167 159 140 157 231 252 249 241 276 296 295 297 299 298 295 294 292 275 222 188 163 143 135 125 119 115 109 103 96 94 94 97 100 102 102 103 103 103 104 94 89 85 83 80 78 77 78 80 85 94 106 106 104 99 94 80 67 58 54 70 125 171 189 201 211 220 230 247 265 277 281 279 275 270 261 254 248 245 243 247 256 264 270 272 272 272 274 272 269 267 266 268
160 168 183 203 218 221 213 205 194 188 183 174 163 154 170 228 254 254 248 252 264 272 282 291 296 296 297 298 290 244 191 153 136 134 134 135 134 132 131 114 100 94 103 112 116 114 112 111 109 106 101 96 92 87 82 77 72 68 65 62 57 52 53 60 69 79 91 105 121 133 146 161 174 183 191 204 235 279 291 291 286 280 274 268 262 254 249 247 246 246 253 261 265 266 268 268 269 270 270 271 272 273 272
200 205 212 218 221 220 204 203 210 216 213 202 185 167 169 205 252 264 264 265 270 274 275 282 289 293 295 295 286 241 192 158 142 143 147 146 144 145 139 124 115 114 121 123 119 113 109 109 108 105 104 101 96 89 87 85 83 82 79 76 71 65 64 66 71 77 90 105 119 127 138 149 163 179 208 284 303 299 290 284 279 274 266 260 255 250 248 247 249 250 263 270 272 272 274 273 272 270 271 273 275 277 275
220 226 225 222 218 206 201 205 214 240 254 249 238 222 214 229 255 269 278 287 293 295 290 286 283 282 287 286 273 221 182 152 138 140 145 145 142 140 138 131 130 133 134 131 125 120 116 115 115 113 111 108 103 98 99 100 102 101 99 98 97 95 87 81 80 85 96 105 115 121 121 119 104 339 304 291 283 276 272 269 266 263 259 255 252 250 251 253 254 252 266 275 279 280 281 280 277 274 272 274 276 277 277
215 227 224 224 221 209 202 192 186 203 235 242 247 250 252 261 271 280 298 306 307 303 299 295 290 285 289 289 277 211 152 135 132 137 147 154 152 143 140 141 142 139 136 136 133 127 124 123 124 124 121 117 114 113 115 116 117 116 114 112 109 103 99 98 101 102 114 121 123 122 117 117 197 270 269 264 260 257 256 256 256 256 256 256 255 254 255 258 261 260 265 270 275 278 280 280 279 277 275 276 277 278 280
217 223 225 234 239 212 161 150 154 165 173 179 190 232 255 274 289 305 312 309 304 301 304 306 307 308 313 314 312 198 138 138 142 150 163 170 165 147 145 147 146 132 130 129 127 122 121 122 123 122 119 117 116 118 121 123 125 124 122 120 116 114 125 127 125 123 131 132 130 125 134 181 232 243 247 248 248 247 249 252 255 258 259 260 260 258 257 257 259 263 265 267 268 272 274 277 279 281 282 281 281 281 283
222 227 234 253 289 30 74 116 160 187 209 221 228 238 254 275 295 309 308 305 305 310 318 321 324 327 326 323 314 246 162 155 155 160 168 170 164 154 154 155 152 143 136 128 117 111 111 110 108 105 103 105 109 113 117 121 123 125 126 128 133 145 143 140 140 148 145 139 133 141 197 226 234 236 239 242 246 250 253 256 258 259 258 260 261 262 258 254 254 260 266 268 270 271 272 276 280 283 284 282 281 282 283
238 250 258 308 9 35 47 54 62 239 253 263 274 283 295 300 301 304 313 320 327 335 335 335 334 334 328 323 312 271 189 167 163 167 171 171 168 163 160 158 156 154 146 139 130 123 118 109 101 96 93 96 103 111 116 120 125 128 136 145 152 150 142 149 166 174 162 162 179 211 226 230 233 235 240 247 253 259 258 256 254 252 252 254 257 259 256 253 253 260 268 272 273 273 272 275 278 280 278 276 275 276 278
256 278 323 14 31 45 49 42 10 304 307 321 329 328 322 317 317 327 339 344 347 347 341 338 337 338 335 329 316 273 214 186 176 174 172 170 166 156 153 153 156 159 156 149 142 135 127 116 108 106 107 110 115 122 129 134 141 150 158 161 158 148 152 173 191 191 186 194 209 223 230 235 240 245 248 251 252 254 252 250 248 248 249 251 255 258 257 258 264 268 271 274 275 275 272 272 272 272 272 272 272 274 274
267 320 14 35 49 64 73 66 31 340 348 341 329 319 322 328 338 348 351 352 351 348 340 338 341 345 339 329 309 263 234 212 192 172 160 154 149 146 152 158 164 168 163 157 149 142 132 123 119 122 128 132 135 140 147 155 163 175 173 165 157 156 169 188 203 203 197 204 217 230 239 245 248 246 240 240 242 245 248 251 253 255 258 261 265 268 270 274 278 277 275 275 276 277 276 273 269 268 269 271 273 275 276
298 8 37 54 73 100 117 124 335 325 314 306 308 316 332 341 347 350 351 353 351 345 338 338 342 352 338 318 294 263 233 206 165 138 138 140 145 154 161 166 170 171 168 163 157 152 144 138 136 140 145 148 149 154 160 164 166 173 149 132 130 139 153 164 163 32 85 204 218 232 245 249 248 244 244 249 255 261 263 267 271 275 277 280 283 285 286 285 284 281 277 275 275 276 277 275 271 269 270 271 273 275 276
347 24 48 70 91 107 89 9 336 324 312 312 320 335 343 345 345 344 349 352 348 336 333 336 344 354 327 298 278 259 205 157 136 134 141 148 156 166 171 171 169 169 171 170 165 160 156 152 151 153 155 153 148 146 129 82 55 52 56 68 82 94 101 94 58 17 352 315 276 270 282 284 282 278 278 280 282 284 286 286 288 289 291 292 293 294 293 289 284 278 274 272 273 274 275 276 275 275 273 273 273 274 274
357 25 50 62 65 56 37 5 336 321 316 323 333 342 343 341 339 339 347 346 335 321 324 336 347 341 294 271 257 241 191 156 145 149 156 160 165 172 176 173 169 168 175 176 173 167 164 160 155 150 137 116 97 83 66 59 58 64 79 86 86 79 67 37 9 355 344 335 327 319 311 305 299 295 293 293 293 293 293 294 295 296 296 295 295 295 293 290 284 278 273 272 272 273 276 277 278 278 278 277 276 275 274
4 38 52 57 56 48 1 315 307 308 319 329 336 340 337 333 330 328 330 319 308 303 312 323 321 282 261 253 245 233 188 157 147 154 165 169 170 171 175 176 175 176 181 182 179 172 162 152 136 114 95 84 81 81 87 91 94 94 81 62 45 30 16 2 350 339 331 322 314 306 301 297 296 295 294 292 292 291 292 294 294 294 292 291 290 289 288 287 285 282 278 276 275 276 277 279 280 280 280 279 278 277 275
24 58 71 81 95 268 288 296 303 312 324 330 333 332 327 322 313 298 281 273 274 282 286 275 250 236 239 239 237 227 187 161 152 159 173 177 176 171 175 180 185 186 187 184 176 161 145 131 118 106 103 106 111 117 114 99 76 55 37 25 15 7 357 342 327 312 302 294 287 284 284 286 288 290 289 288 287 287 288 289 290 288 287 286 285 285 285 284 284 284 284 283 283 283 282 282 282 281 281 280 278 277 276
35 110 178 225 262 293 302 306 310 317 324 325 324 320 315 305 289 263 257 256 258 267 270 261 248 233 225 223 222 218 186 164 156 160 170 174 174 171 177 183 189 188 180 168 155 146 137 131 127 124 125 125 124 117 99 75 57 43 30 17 1 345 322 302 288 280 277 274 273 273 277 280 281 278 280 281 283 283 286 287 287 287 287 287 286 286 285 286 286 287 288 288 288 288 286 285 283 282 280 279 277 276 275
267 235 281 299 304 303 302 305 309 315 317 316 313 309 299 279 250 237 243 245 249 257 267 268 260 246 231 221 213 208 176 149 137 140 150 157 162 163 170 175 175 166 156 153 153 151 144 140 136 134 129 123 114 102 89 77 65 50 31 360 315 284 270 265 263 263 265 267 270 274 276 275 270 264 271 278 282 285 288 289 289 289 290 290 290 290 290 290 290 291 290 290 289 287 286 285 283 282 280 278 277 277 275
345 356 325 306 295 293 298 302 306 309 309 307 304 299 281 251 228 223 227 227 227 232 250 259 261 257 244 229 213 198 163 140 132 134 143 149 152 151 156 157 154 150 150 152 153 149 140 135 132 127 122 116 112 110 109 110 112 101 267 256 251 250 251 254 257 260 262 263 264 265 264 263 262 263 272 279 284 288 290 290 290 290 292 293 294 294 293 292 292 291 290 289 287 286 284 283 282 281 280 279 278 277 277
358 309 289 285 287 292 297 300 302 302 300 298 295 289 269 247 233 228 227 222 217 214 224 237 249 257 251 238 220 199 167 152 148 155 160 161 159 155 151 148 147 148 147 145 138 128 119 116 117 117 119 122 128 136 148 162 182 212 233 238 240 243 248 254 258 261 256 250 244 240 243 250 261 277 284 287 289 291 292 292 292 293 294 294 294 294 293 291 290 289 287 286 284 284 282 281 280 279 279 278 278 277 277
247 261 278 285 289 292 294 295 294 292 291 290 287 276 260 249 244 242 239 235 229 225 228 234 243 253 250 242 230 210 171 157 160 168 167 165 160 154 151 152 155 155 145 134 123 116 114 116 121 127 134 144 157 171 182 193 207 224 233 238 241 245 252 257 258 254 244 235 229 225 230 246 273 295 298 297 295 294 294 294 294 294 294 292 291 290 288 287 287 287 285 283 281 279 278 277 276 274 273 274 274 276 278
251 265 279 284 285 286 287 286 285 285 285 283 277 264 252 247 247 250 249 247 245 246 250 251 253 256 253 247 240 215 131 131 143 154 150 145 141 140 148 154 157 153 139 131 127 127 133 140 148 156 163 175 186 196 201 207 216 227 234 240 245 252 256 255 250 244 237 230 227 226 233 260 290 300 299 298 297 295 293 292 292 293 291 288 286 284 284 283 282 282 283 282 280 278 276 273 270 266 264 265 269 275 280
258 271 278 280 281 280 280 280 281 282 281 277 270 258 247 241 240 243 242 241 240 245 253 257 259 261 259 258 257 89 99 104 110 115 115 120 127 137 146 150 150 149 147 149 154 160 163 168 174 183 193 201 208 212 214 218 223 231 236 242 250 256 254 247 240 237 237 236 237 252 282 297 296 291 289 291 292 293 292 292 291 291 289 287 284 283 283 281 280 279 281 281 281 279 277 274 270 262 259 262 268 275 280
268 276 280 281 281 280 279 280 280 279 277 273 265 251 239 233 231 233 234 232 231 234 244 251 256 259 263 271 311 82 90 87 84 87 98 122 146 154 155 157 161 166 168 173 179 183 184 187 194 202 210 215 220 223 226 229 232 236 240 244 248 249 244 238 234 235 242 253 277 314 315 308 297 287 283 283 285 288 290 291 291 290 288 286 284 284 283 282 282 282 282 281 280 276 271 269 270 270 268 270 273 277 281
275 280 283 285 285 286 285 283 281 279 278 272 261 244 235 231 230 231 232 233 236 241 247 251 255 256 264 273 338 94 93 88 82 79 90 131 185 184 172 172 174 177 182 190 197 199 198 202 208 212 216 221 226 231 233 235 238 242 242 239 234 231 233 234 237 243 260 283 306 319 308 297 290 284 282 280 280 281 284 286 286 286 285 283 282 283 282 283 283 284 285 284 281 265 252 254 266 275 278 280 281 282 283
276 281 285 288 291 292 288 283 280 278 277 272 260 240 233 230 230 231 230 233 240 247 249 249 250 250 251 243 183 111 102 104 107 108 126 169 204 214 200 191 189 191 198 205 209 209 211 214 217 218 221 226 230 232 234 237 239 240 227 214 212 220 231 247 269 292 297 306 314 314 297 288 283 281 280 281 280 281 281 281 280 281 280 280 281 282 284 285 286 287 287 289 290 282 263 260 271 279 284 286 287 287 286
275 280 284 287 287 284 279 276 274 275 275 270 258 238 229 224 222 221 222 228 237 241 240 237 236 234 230 215 131 95 104 116 130 140 170 195 205 206 209 210 209 209 213 215 217 217 221 224 225 225 226 228 231 233 234 235 229 207 193 194 203 221 269 317 325 318 319 321 319 308 297 290 285 280 279 280 282 285 284 281 278 276 277 278 280 283 286 287 288 289 292 299 307 313 304 292 286 286 289 290 291 290 288
272 275 278 277 273 267 266 267 270 272 271 262 248 233 227 218 208 200 209 222 228 227 223 221 219 215 196 134 104 106 126 143 154 168 198 213 216 210 212 216 218 218 218 219 221 223 228 231 232 231 230 230 231 231 226 212 189 173 174 172 164 25 354 339 328 326 327 323 315 306 300 293 286 279 278 279 282 283 281 280 278 277 277 279 282 286 288 290 293 298 307 314 318 319 312 305 297 293 292 291 291 289 287
271 274 273 269 264 260 261 262 264 265 257 243 228 223 222 210 195 183 200 214 218 210 207 204 200 183 150 131 133 148 163 169 175 190 213 223 226 224 225 226 227 226 223 222 224 226 231 233 234 232 230 228 224 213 191 172 159 149 135 118 80 25 354 340 334 333 328 320 311 303 295 286 280 278 280 280 278 276 275 276 278 279 278 280 284 287 290 294 301 312 319 320 318 317 312 307 301 296 292 289 287 285 282
277 279 275 271 266 262 260 258 255 250 240 230 221 219 219 206 193 187 199 209 214 206 197 188 175 159 155 159 165 173 187 192 195 200 219 230 236 236 236 235 234 232 228 225 225 227 231 232 232 229 224 212 191 166 151 139 127 115 110 88 37 12 354 343 336 330 320 310 301 292 285 279 276 276 279 277 275 272 273 276 280 282 281 282 284 288 293 302 312 320 321 320 318 317 312 306 299 293 288 285 281 278 276
283 281 278 274 270 268 265 260 252 239 230 226 225 227 226 222 219 211 202 201 202 207 190 178 172 175 178 180 182 185 194 203 209 211 220 230 236 240 240 240 238 235 231 227 226 227 230 232 233 226 198 152 130 119 109 101 95 91 63 31 13 360 345 333 322 310 298 290 283 279 277 275 275 275 275 275 275 273 275 279 284 286 284 285 287 293 302 312 319 322 322 321 319 317 312 305 297 290 286 282 279 277 275
285 282 279 276 273 270 268 261 250 233 222 219 221 220 210 217 226 228 200 178 176 204 197 189 188 197 195 192 192 196 200 209 219 224 223 227 234 241 242 240 237 232 229 227 227 229 233 237 242 76 86 88 88 83 77 72 62 45 24 7 350 334 321 306 292 280 273 270 267 265 265 269 273 277 277 279 279 280 282 286 289 289 285 288 294 302 312 319 322 324 323 322 320 317 312 304 295 289 286 283 281 279 278